�������l�o���
Date,Time,MP-1(��Sv/h),MP-2(��Sv/h),MP-3(��Sv/h),MP-4(��Sv/h),MP-5(��Sv/h),MP-6(��Sv/h),MP-7(��Sv/h),MP-8(��Sv/h),����,����(m/s),���J
2017/06/25,00:00,0.999,1.596,1.056,1.889,1.291,0.532,0.976,0.897,��,4.9,��
2017/06/25,00:10,0.998,1.597,1.056,1.888,1.294,0.532,0.974,0.896,��,5.8,��
2017/06/25,00:20,1.001,1.596,1.055,1.888,1.293,0.533,0.974,0.898,��,6.2,��
2017/06/25,00:30,1.002,1.599,1.054,1.888,1.292,0.533,0.974,0.899,��,5.6,��
2017/06/25,00:40,1.001,1.599,1.054,1.887,1.293,0.534,0.974,0.899,��,6.2,��
2017/06/25,00:50,1.002,1.597,1.053,1.886,1.291,0.534,0.974,0.896,��,6.6,��
2017/06/25,01:00,1.001,1.595,1.054,1.884,1.292,0.533,0.973,0.899,��,6.7,��
2017/06/25,01:10,1.002,1.599,1.054,1.888,1.290,0.533,0.974,0.898,��,6.6,��
2017/06/25,01:20,1.002,1.597,1.056,1.887,1.294,0.533,0.975,0.898,��,6.3,��
2017/06/25,01:30,1.001,1.596,1.058,1.885,1.293,0.533,0.975,0.897,��,6.3,��
2017/06/25,01:40,1.000,1.598,1.053,1.888,1.291,0.533,0.975,0.896,��,7.2,��
2017/06/25,01:50,1.001,1.596,1.053,1.885,1.291,0.532,0.974,0.896,��쓌,7.5,��
2017/06/25,02:00,1.002,1.598,1.054,1.886,1.290,0.532,0.975,0.899,��,4.8,��
2017/06/25,02:10,1.000,1.598,1.056,1.886,1.292,0.534,0.974,0.898,��,4.2,��
2017/06/25,02:20,0.998,1.598,1.053,1.883,1.291,0.534,0.973,0.897,��,4.2,��
2017/06/25,02:30,1.000,1.597,1.054,1.884,1.292,0.533,0.975,0.897,��,3.9,��
2017/06/25,02:40,1.001,1.597,1.057,1.887,1.290,0.534,0.975,0.897,��쐼,3.1,��
2017/06/25,02:50,1.002,1.597,1.053,1.886,1.290,0.532,0.973,0.896,��쐼,2.6,��
2017/06/25,03:00,1.000,1.595,1.055,1.885,1.293,0.533,0.975,0.897,��,4.0,��
2017/06/25,03:10,1.000,1.592,1.053,1.884,1.293,0.533,0.973,0.899,��,3.4,��
2017/06/25,03:20,1.001,1.599,1.055,1.885,1.290,0.534,0.974,0.897,��,4.2,��
2017/06/25,03:30,1.003,1.598,1.054,1.885,1.290,0.533,0.974,0.898,��,4.9,��
2017/06/25,03:40,1.001,1.595,1.055,1.886,1.291,0.532,0.973,0.897,��,5.0,��
2017/06/25,03:50,1.003,1.594,1.056,1.884,1.290,0.533,0.973,0.896,��,4.0,��
2017/06/25,04:00,1.000,1.594,1.054,1.888,1.292,0.533,0.976,0.898,��,3.8,��
2017/06/25,04:10,1.002,1.594,1.052,1.882,1.292,0.533,0.973,0.897,��,3.4,��
2017/06/25,04:20,1.000,1.593,1.053,1.887,1.292,0.532,0.974,0.899,��,4.3,��
2017/06/25,04:30,1.000,1.593,1.053,1.883,1.293,0.531,0.975,0.897,��,4.8,��
2017/06/25,04:40,1.000,1.594,1.052,1.887,1.291,0.533,0.973,0.898,��,5.0,��
2017/06/25,04:50,1.001,1.594,1.053,1.886,1.293,0.534,0.972,0.897,��,4.3,��
2017/06/25,05:00,1.003,1.595,1.053,1.883,1.290,0.533,0.973,0.897,��,4.3,��
2017/06/25,05:10,1.002,1.595,1.051,1.885,1.291,0.533,0.972,0.896,��,4.5,��
2017/06/25,05:20,1.001,1.593,1.052,1.885,1.291,0.532,0.972,0.899,��,5.1,��
2017/06/25,05:30,0.999,1.595,1.055,1.886,1.292,0.532,0.974,0.898,��쐼,3.8,��
2017/06/25,05:40,1.002,1.595,1.054,1.886,1.290,0.533,0.972,0.899,��쐼,3.5,��
2017/06/25,05:50,1.002,1.597,1.054,1.884,1.293,0.534,0.972,0.898,��쐼,3.1,��
2017/06/25,06:00,1.002,1.594,1.055,1.885,1.290,0.535,0.973,0.896,��쐼,3.4,��
2017/06/25,06:10,1.001,1.592,1.054,1.885,1.292,0.534,0.974,0.897,��,3.4,��
2017/06/25,06:20,1.002,1.594,1.054,1.886,1.291,0.533,0.972,0.898,��,3.9,�L
2017/06/25,06:30,1.000,1.596,1.055,1.889,1.290,0.533,0.972,0.897,��쓌,4.4,�L
2017/06/25,06:40,0.999,1.595,1.054,1.886,1.290,0.533,0.972,0.898,��,4.0,�L
2017/06/25,06:50,1.000,1.596,1.054,1.887,1.294,0.533,0.971,0.896,��,4.1,�L
2017/06/25,07:00,0.999,1.594,1.056,1.888,1.292,0.534,0.974,0.899,��,3.0,�L
2017/06/25,07:10,1.000,1.593,1.056,1.887,1.291,0.533,0.972,0.897,�쐼,1.5,�L
2017/06/25,07:20,1.002,1.597,1.056,1.888,1.293,0.535,0.973,0.898,��쐼,0.9,�L
2017/06/25,07:30,1.002,1.595,1.055,1.886,1.294,0.534,0.973,0.898,�k��,0.9,�L
2017/06/25,07:40,1.001,1.595,1.054,1.888,1.293,0.533,0.972,0.898,-,CALM,�L
2017/06/25,07:50,1.000,1.593,1.055,1.887,1.292,0.534,0.971,0.897,�쓌,2.0,�L
2017/06/25,08:00,1.000,1.592,1.054,1.885,1.290,0.532,0.974,0.897,��쓌,5.5,�L
2017/06/25,08:10,0.999,1.594,1.053,1.886,1.288,0.532,0.973,0.899,��,5.9,�L
2017/06/25,08:20,1.000,1.593,1.055,1.885,1.290,0.533,0.974,0.897,��쐼,2.3,�L
2017/06/25,08:30,0.998,1.592,1.056,1.888,1.290,0.534,0.972,0.897,��,3.3,�L
2017/06/25,08:40,1.001,1.595,1.055,1.886,1.290,0.532,0.972,0.898,�쐼,1.2,�L
2017/06/25,08:50,1.003,1.594,1.056,1.886,1.290,0.534,0.974,0.898,��쐼,2.6,��
2017/06/25,09:00,1.001,1.596,1.057,1.887,1.291,0.533,0.973,0.897,��,1.9,�L
2017/06/25,09:10,1.002,1.596,1.055,1.887,1.292,0.534,0.972,0.900,��쐼,1.9,�L
2017/06/25,09:20,1.001,1.596,1.057,1.887,1.293,0.531,0.974,0.898,��,2.0,�L
2017/06/25,09:30,1.001,1.594,1.056,1.888,1.292,0.533,0.970,0.898,��,1.1,��
2017/06/25,09:40,1.000,1.597,1.058,1.887,1.290,0.530,0.970,0.896,��쓌,2.5,��
2017/06/25,09:50,1.002,1.595,1.057,1.890,1.290,0.531,0.970,0.895,��쓌,4.9,��
2017/06/25,10:00,0.999,1.598,1.054,1.887,1.293,0.531,0.969,0.895,��쓌,3.6,��
2017/06/25,10:10,0.998,1.594,1.054,1.887,1.290,0.532,0.972,0.895,��쓌,6.0,��
2017/06/25,10:20,0.999,1.597,1.052,1.888,1.290,0.530,0.972,0.895,��쓌,5.6,��
2017/06/25,10:30,0.999,1.592,1.052,1.888,1.291,0.532,0.971,0.893,��쓌,5.7,��
2017/06/25,10:40,1.001,1.593,1.052,1.890,1.290,0.531,0.971,0.895,�쓌,6.2,��
2017/06/25,10:50,1.001,1.594,1.053,1.889,1.290,0.533,0.972,0.896,�쓌,5.4,��
2017/06/25,11:00,0.999,1.592,1.054,1.886,1.289,0.533,0.971,0.895,�쓌,5.2,��
2017/06/25,11:10,1.000,1.590,1.052,1.886,1.292,0.529,0.971,0.894,�쓌,4.5,��
2017/06/25,11:20,1.002,1.593,1.050,1.884,1.292,0.532,0.971,0.895,�쓌,4.3,��
2017/06/25,11:30,1.000,1.593,1.055,1.884,1.292,0.532,0.970,0.893,�쓌,4.3,��
2017/06/25,11:40,1.000,1.593,1.051,1.888,1.293,0.532,0.973,0.894,�쓌,3.5,��
2017/06/25,11:50,1.001,1.592,1.055,1.889,1.291,0.531,0.972,0.896,��쓌,1.5,��
2017/06/25,12:00,1.001,1.594,1.054,1.890,1.293,0.532,0.972,0.897,��쓌,1.7,��
2017/06/25,12:10,1.005,1.594,1.055,1.890,1.292,0.533,0.972,0.895,�쓌,2.0,��
2017/06/25,12:20,1.000,1.595,1.054,1.886,1.293,0.531,0.972,0.893,�쓌,2.6,��
2017/06/25,12:30,1.000,1.594,1.052,1.886,1.293,0.532,0.972,0.895,�쓌,2.5,��
2017/06/25,12:40,1.000,1.596,1.051,1.884,1.290,0.533,0.972,0.895,�쓌,2.9,��
2017/06/25,12:50,1.002,1.595,1.054,1.884,1.295,0.533,0.972,0.895,�쓌,2.0,��
2017/06/25,13:00,1.001,1.594,1.054,1.888,1.294,0.533,0.973,0.896,�쓌,2.3,��
2017/06/25,13:10,1.002,1.594,1.053,1.885,1.295,0.534,0.972,0.894,��쓌,2.8,��
2017/06/25,13:20,1.004,1.594,1.056,1.887,1.295,0.534,0.974,0.896,��쓌,1.9,��
2017/06/25,13:30,1.003,1.596,1.054,1.885,1.292,0.532,0.974,0.895,�쓌,1.4,��
2017/06/25,13:40,1.001,1.594,1.055,1.886,1.292,0.532,0.971,0.895,-,CALM,��
2017/06/25,13:50,1.002,1.597,1.054,1.888,1.295,0.533,0.973,0.896,��쓌,1.2,��
2017/06/25,14:00,1.003,1.596,1.059,1.889,1.295,0.534,0.972,0.895,���쓌,1.4,��
2017/06/25,14:10,1.004,1.595,1.053,1.888,1.295,0.531,0.973,0.895,��,1.5,��
2017/06/25,14:20,1.001,1.595,1.055,1.888,1.295,0.532,0.973,0.897,��,2.0,��
2017/06/25,14:30,1.003,1.597,1.055,1.887,1.294,0.533,0.972,0.897,��,2.6,��
2017/06/25,14:40,1.004,1.594,1.054,1.887,1.295,0.532,0.971,0.896,��,2.2,��
2017/06/25,14:50,1.000,1.593,1.057,1.884,1.295,0.533,0.971,0.895,��,2.2,��
2017/06/25,15:00,1.003,1.597,1.056,1.889,1.293,0.532,0.972,0.894,��,1.7,��
2017/06/25,15:10,1.002,1.596,1.056,1.886,1.297,0.532,0.975,0.898,���쓌,1.2,��
2017/06/25,15:20,1.003,1.596,1.055,1.888,1.295,0.535,0.974,0.896,��쓌,0.9,��
2017/06/25,15:30,1.005,1.595,1.058,1.889,1.295,0.533,0.973,0.895,���쓌,0.9,��
2017/06/25,15:40,1.006,1.596,1.058,1.888,1.295,0.533,0.974,0.897,�쓌,1.1,��
2017/06/25,15:50,1.003,1.596,1.054,1.889,1.298,0.533,0.973,0.896,��쓌,1.1,��
2017/06/25,16:00,1.004,1.598,1.054,1.888,1.295,0.533,0.973,0.896,-,CALM,��
2017/06/25,16:10,1.004,1.596,1.055,1.888,1.297,0.532,0.974,0.897,-,CALM,��
2017/06/25,16:20,1.003,1.598,1.056,1.895,1.293,0.534,0.971,0.896,��,0.9,��
2017/06/25,16:30,1.002,1.596,1.056,1.893,1.294,0.533,0.972,0.895,��,1.5,��
2017/06/25,16:40,1.003,1.598,1.056,1.892,1.295,0.533,0.971,0.895,��쓌,0.8,��
2017/06/25,16:50,1.002,1.597,1.056,1.892,1.296,0.532,0.973,0.897,��,0.9,��
2017/06/25,17:00,1.000,1.597,1.056,1.891,1.295,0.532,0.971,0.894,��,1.1,��
2017/06/25,17:10,1.003,1.599,1.059,1.892,1.295,0.534,0.972,0.896,��쓌,1.1,��
2017/06/25,17:20,1.004,1.598,1.057,1.893,1.296,0.533,0.972,0.897,��쓌,1.1,��
2017/06/25,17:30,1.002,1.597,1.056,1.894,1.295,0.532,0.971,0.896,��,1.7,�L
2017/06/25,17:40,1.004,1.598,1.056,1.890,1.296,0.532,0.972,0.898,��쓌,1.4,�L
2017/06/25,17:50,1.003,1.599,1.057,1.887,1.297,0.534,0.972,0.896,��,1.4,�L
2017/06/25,18:00,1.002,1.598,1.059,1.889,1.298,0.535,0.973,0.896,��,1.7,�L
2017/06/25,18:10,1.003,1.600,1.058,1.890,1.294,0.534,0.973,0.895,��,1.4,�L
2017/06/25,18:20,1.003,1.597,1.059,1.892,1.295,0.534,0.973,0.897,��,1.5,�L
2017/06/25,18:30,1.003,1.595,1.058,1.890,1.294,0.535,0.969,0.897,��쐼,0.9,�L
2017/06/25,18:40,1.001,1.592,1.058,1.887,1.289,0.537,0.970,0.894,�쓌,0.9,�L
2017/06/25,18:50,1.000,1.592,1.055,1.887,1.292,0.537,0.971,0.894,-,CALM,�L
2017/06/25,19:00,0.999,1.587,1.055,1.885,1.287,0.536,0.970,0.894,-,CALM,�L
2017/06/25,19:10,0.996,1.583,1.054,1.886,1.284,0.536,0.972,0.893,�k,1.5,�L
2017/06/25,19:20,0.995,1.579,1.053,1.885,1.285,0.536,0.969,0.893,�k,2.6,�L
2017/06/25,19:30,0.994,1.578,1.050,1.885,1.285,0.535,0.969,0.893,�k�k��,1.9,�L
2017/06/25,19:40,0.994,1.577,1.051,1.883,1.282,0.535,0.970,0.895,�k,1.4,�L
2017/06/25,19:50,0.993,1.577,1.049,1.882,1.283,0.533,0.972,0.895,�k,2.0,�L
2017/06/25,20:00,0.992,1.575,1.049,1.880,1.283,0.535,0.970,0.896,�k�k��,2.3,��
2017/06/25,20:10,0.992,1.575,1.046,1.881,1.283,0.534,0.967,0.896,�k,0.9,��
2017/06/25,20:20,0.992,1.574,1.049,1.882,1.283,0.532,0.969,0.896,�k�k��,1.4,��
2017/06/25,20:30,0.990,1.575,1.049,1.880,1.283,0.531,0.969,0.895,�k,1.1,��
2017/06/25,20:40,0.992,1.575,1.047,1.879,1.283,0.532,0.969,0.897,���k��,1.7,��
2017/06/25,20:50,0.991,1.573,1.046,1.880,1.283,0.532,0.969,0.894,�k�k��,2.8,��
2017/06/25,21:00,0.993,1.575,1.047,1.878,1.282,0.531,0.971,0.894,�k�k��,3.4,��
2017/06/25,21:10,0.991,1.574,1.045,1.879,1.284,0.531,0.968,0.897,�k�k��,3.4,��
2017/06/25,21:20,0.992,1.575,1.047,1.879,1.283,0.532,0.969,0.897,�k�k��,4.5,�L
2017/06/25,21:30,0.990,1.572,1.047,1.879,1.282,0.530,0.969,0.896,�k�k��,5.5,��
2017/06/25,21:40,0.990,1.574,1.047,1.879,1.282,0.530,0.970,0.896,�k�k��,6.5,��
2017/06/25,21:50,0.989,1.575,1.045,1.879,1.281,0.530,0.970,0.897,�k�k��,6.6,��
2017/06/25,22:00,0.990,1.570,1.047,1.880,1.281,0.529,0.966,0.896,�k�k��,5.0,��
2017/06/25,22:10,0.990,1.573,1.046,1.879,1.283,0.530,0.970,0.895,�k�k��,5.0,��
2017/06/25,22:20,0.992,1.571,1.047,1.878,1.282,0.528,0.970,0.894,�k�k��,5.7,�L
2017/06/25,22:30,0.990,1.572,1.048,1.881,1.282,0.529,0.969,0.895,�k�k��,6.7,�L
2017/06/25,22:40,0.992,1.575,1.046,1.880,1.284,0.529,0.969,0.898,�k�k��,7.9,�L
2017/06/25,22:50,0.990,1.573,1.046,1.877,1.282,0.530,0.968,0.897,�k�k��,6.5,��
2017/06/25,23:00,0.990,1.574,1.048,1.880,1.283,0.531,0.968,0.896,�k�k��,7.0,��
2017/06/25,23:10,0.989,1.571,1.045,1.880,1.281,0.529,0.967,0.896,�k��,7.6,��
2017/06/25,23:20,0.990,1.573,1.045,1.880,1.281,0.529,0.967,0.894,�k�k��,7.6,��
2017/06/25,23:30,0.990,1.574,1.047,1.878,1.279,0.528,0.967,0.896,�k�k��,7.2,��
2017/06/25,23:40,0.990,1.575,1.046,1.875,1.283,0.528,0.970,0.895,�k��,6.2,��
2017/06/25,23:50,0.989,1.574,1.046,1.880,1.284,0.531,0.969,0.896,�k��,5.9,��
